Regional Weather Roundup
Issued by NWS Boston, MA

Home | Current Version | Previous Version | Text Only | Print | Product List | Glossary On
Versions: 1 2 3 4 5 6 7 8 9 10 11 12 13 14 15 16 17 18 19 20 21 22 23 24 25 26 27 28 29 30 31 32 33 34 35 36 37 38 39 40 41 42 43 44 45 46 47 48 49
000
ASUS41 KBOX 220810
RWRBOX

REGIONAL WEATHER ROUNDUP
NATIONAL WEATHER SERVICE TAUNTON MA
400 AM EDT FRI AUG 22 2014

NOTE:  "FAIR" INDICATES FEW OR NO CLOUDS BELOW 12,000 FEET WITH NO
SIGNIFICANT WEATHER AND/OR OBSTRUCTIONS TO VISIBILITY.  THE FOLLOWING
OBSERVATION LOCATIONS DO NOT REPORT PRESENT WEATHER...PROVINCETOWN...
SMITHFIELD...BLOCK ISLAND...KEENE...AND OXFORD.

MAZALL-220900-
EASTERN MASSACHUSETTS

CITY           SKY/WX    TMP DP  RH WIND       PRES   REMARKS
BOSTON         RAIN      64  61  90 N7        30.07S
BEVERLY        CLOUDY    62  59  90 NE3       30.07F
LAWRENCE       RAIN      61  59  93 N8        30.10S
BEDFORD        CLOUDY    61  61 100 NW3       30.07S
BLUE HILL        N/A     63  63 100 NE7       30.07S
NORWOOD        CLOUDY    65  63  93 CALM      30.07S
MARSHFIELD     CLOUDY    66  64  94 CALM      30.07S
PLYMOUTH       CLOUDY    63  60  90 W3        30.06S
TAUNTON        CLOUDY    62  61  96 CALM      30.05F
NEW BEDFORD    CLOUDY    63  62  97 N5        30.05S
$$

MAZALL-220900-
CAPE COD AND THE ISLANDS

CITY           SKY/WX    TMP DP  RH WIND       PRES   REMARKS
FALMOUTH       CLOUDY    64  63  94 NE5       30.04F
HYANNIS        MOCLDY    63  61  93 CALM      30.03S
CHATHAM        MOCLDY    64  62  93 CALM      30.05S
PROVINCETOWN   CLOUDY    64  63  94 MISG      30.06S
NANTUCKET      FOG       59  59 100 N6        30.03S VSB 3/4
MARTHAS VNYRD  CLOUDY    64  63  96 E3        30.04S
$$

MAZALL-220900-
CENTRAL AND WESTERN MASSACHUSETTS

CITY           SKY/WX    TMP DP  RH WIND       PRES   REMARKS
WORCESTER      FOG       59  59 100 E3        30.10R VSB 3/4
FITCHBURG      CLOUDY    61  58  90 N3        30.10S
ORANGE         CLOUDY    60  59  96 CALM      30.08S
SPRINGFIELD    LGT RAIN  64  63  94 NE2       30.06R
WESTFIELD      CLOUDY    65  63  93 N3        30.06S
NORTH ADAMS    LGT RAIN  61  60  97 E5        30.05S
PITTSFIELD     CLOUDY    62  62 100 CALM      30.04F
$$

RIZALL-220900-
RHODE ISLAND

CITY           SKY/WX    TMP DP  RH WIND       PRES   REMARKS
PROVIDENCE     LGT RAIN  65  62  90 NE6       30.07S
NEWPORT        LGT RAIN  66  62  87 N5        30.06R
BLOCK ISLAND   CLOUDY    66  61  82 E5        30.05S
SMITHFIELD     CLOUDY    61  55  82 N7        30.07F
WESTERLY       CLOUDY    66  62  87 NE3       30.06S
$$

CTZALL-220900-
CONNECTICUT

CITY           SKY/WX    TMP DP  RH WIND       PRES   REMARKS
BRADLEY INTL   LGT RAIN  66  63  90 NE5       30.05S
HARTFORD       CLOUDY    67  63  87 CALM      30.05R
BRIDGEPORT     LGT RAIN  68  64  87 E6        30.03F
DANBURY        CLOUDY    66  63  90 CALM      30.05S
GROTON         LGT RAIN  65  62  90 NE6       30.05R
NEW HAVEN      CLOUDY    69  63  81 NE3       30.04S
CHESTER        HVY RAIN  64  64 100 CALM      30.07S
MERIDEN        LGT RAIN  66  61  84 CALM      30.05S
WILLIMANTIC    CLOUDY    67  59  75 CALM      30.07R
OXFORD         CLOUDY    64  61  88 E5        30.06F
$$

MEZ002-015-021-024-NHZ003-005-008-011-012-014-VTZ005-008-220900-
NORTHERN NEW ENGLAND

CITY           SKY/WX    TMP DP  RH WIND       PRES   REMARKS
PORTLAND ME    CLOUDY    62  60  93 NE6       30.10S
BANGOR ME      CLOUDY    62  58  86 N6        30.13S
CONCORD NH     LGT RAIN  56  55  97 N5        30.11S
MANCHESTER NH  HVY RAIN  58  57  97 N8        30.09S FOG
NASHUA NH      LGT RAIN  59  59 100 CALM      30.10S FOG
PORTSMOUTH NH  LGT RAIN  61  60  94 NW6       30.08S FOG
JAFFREY NH     CLOUDY    56  55  97 CALM      30.11S
KEENE NH       CLOUDY    59  52  77 CALM      30.09R
BURLINGTON VT  CLOUDY    63  59  87 S3        30.05S
MT. WASHINGTON FOG       45  45 100 SE26        N/A  VSB 0
$$

NYZ052-076-220900-
EASTERN NEW YORK

CITY           SKY/WX    TMP DP  RH WIND       PRES   REMARKS
ALBANY         LGT RAIN  67  64  90 E5        30.01F
NEW YORK CITY  CLOUDY    68  64  87 S7        30.00F
$$

ANZALL-220900-
MARINE OBSERVATIONS

STATION/POSITION TIME  TEMP    WIND        PRES    VSBY  WAVE
                       AIR SEA DIR/SP/G                  HT/PER
                 (UTC) (F)     (DEG/KT/KT) (MB)    (MI)  (FT/S)
BOSTON BUOY      0750   66 66   50/  8/ 10 1018.3S         1/ 6
BUZZARDS BAY     0700           50/  8/  9 1018.1F
NANTUCKET SOUND  0750   63 69   60/  6/  6 1017.1F         1
MASS BAY-STELLWA 0704   67 67   40/  8/ 10   N/A    1 7/8  2/ 6
ISLE OF SHOALS   0800   63      20/  8/ 10 1018.2R
S OF BLOCK IS    0708      68                N/A           3/ 7
$$

......................KEY.........................
  SKY/WX - SKY CONDITION/PRESENT WEATHER
  TMP    - TEMPERATURE IN FAHRENHEIT
  DWPT   - DEWPOINT IN FAHRENHEIT
  RH     - RELATIVE HUMIDITY IN PERCENT
  WIND   - DIRECTION AND SPEED IN MPH
  PRES   - MEAN SEA LEVEL PRESSURE IN INCHES OF HG
  WCI    - WIND CHILL INDEX
  VSB    - VISIBILITY IN MILES
  HX     - HEAT INDEX
  TC     - TEMPERATURE IN CELSIUS
  VRB    - VARIABLE WIND DIRECTION
  N/A    - NOT AVAILABLE



USA.gov is the U.S. government's official web portal to all federal, state and local government web resources and services.